Waarnemingen

Advertentie
Mijn weer
La Hague, Frankrijk (7020): temperatuur & dauwpunt: 18.08.2019 00:00:00 - 24.08.2019 00:00:00 (CEST)La Hague, Frankrijk (7020): windsnelheid & windstoten: 18.08.2019 00:00:00 - 24.08.2019 00:00:00 (CEST)La Hague, Frankrijk (7020): windrichting: 18.08.2019 00:00:00 - 24.08.2019 00:00:00 (CEST)La Hague, Frankrijk (7020): luchtdruk: 18.08.2019 00:00:00 - 24.08.2019 00:00:00 (CEST)La Hague, Frankrijk (7020): zicht: 18.08.2019 00:00:00 - 24.08.2019 00:00:00 (CEST)La Hague, Frankrijk (7020): neerslag: 18.08.2019 00:00:00 - 24.08.2019 00:00:00 (CEST)
Datum & Tijd tt [°C] td [°C] ff [km/u] ff [kn] fx [km/u] fx [kn] dd ppp [hPa] vv [km] rr [mm]
24.08.2019 00:00:00 15,9 12,8 17 9 23 12 O 1020,4 - 0,0
23.08.2019 23:00:00 16,3 13,8 18 10 24 13 O 1020,7 30 0,0
23.08.2019 22:00:00 16,9 14,2 17 9 26 14 O 1021,0 - 0,0
23.08.2019 21:00:00 17,6 14,3 19 10 28 15 O 1021,1 - 0,0
23.08.2019 20:00:00 18,7 15,4 20 11 27 14 O 1021,3 20 0,0
23.08.2019 19:00:00 19,2 15,7 20 11 29 16 O 1021,7 - 0,0
23.08.2019 18:00:00 19,5 15,8 21 11 34 18 O 1022,4 - 0,0
23.08.2019 17:00:00 20,0 16,0 22 12 31 17 O 1022,8 16 0,0
23.08.2019 16:00:00 20,2 16,2 23 13 31 17 O 1023,2 - 0,0
23.08.2019 15:00:00 20,3 16,3 23 12 30 16 O 1023,6 - 0,0
23.08.2019 14:00:00 20,2 16,2 21 11 27 15 O 1023,8 14 0,0
23.08.2019 13:00:00 20,0 16,2 21 11 29 15 ONO 1024,1 - 0,0
23.08.2019 12:00:00 19,9 16,5 18 10 24 13 ONO 1024,4 - 0,0
23.08.2019 11:00:00 19,0 15,9 15 8 23 13 O 1024,9 18 0,0
23.08.2019 10:00:00 17,9 15,0 17 9 23 12 O 1024,7 - 0,0
23.08.2019 09:00:00 16,3 13,8 13 7 17 9 O 1024,7 - 0,2
23.08.2019 08:00:00 13,0 9,6 8 5 9 5 O 1024,9 12 0,0
23.08.2019 07:00:00 12,0 8,8 0 0 7 4 N 1024,9 - 0,0
23.08.2019 06:00:00 12,0 9,0 6 4 9 5 ZO 1024,9 - 0,0
23.08.2019 05:00:00 11,5 8,4 7 4 9 5 OZO 1025,2 12 0,0
23.08.2019 04:00:00 12,2 8,5 7 4 9 5 ZZW 1025,6 - 0,0
23.08.2019 03:00:00 12,2 8,8 8 5 13 7 ZZO 1025,7 - 0,0
23.08.2019 02:00:00 12,7 9,9 10 5 11 6 OZO 1025,9 16 0,0
23.08.2019 01:00:00 12,5 9,9 7 4 9 5 ZO 1026,2 - 0,0
23.08.2019 00:00:00 13,2 10,7 7 4 12 6 OZO 1026,3 - 0,0
22.08.2019 23:00:00 13,5 10,5 8 4 9 5 OZO 1026,3 16 0,0
22.08.2019 22:00:00 15,0 10,4 3 2 13 7 ONO 1026,3 - 0,0
22.08.2019 21:00:00 17,1 11,6 8 4 13 7 NNW 1025,9 - 0,0
22.08.2019 20:00:00 18,2 12,4 8 4 11 6 NW 1025,8 18 0,0
22.08.2019 19:00:00 19,0 12,5 10 5 16 8 NW 1025,8 - 0,0
22.08.2019 18:00:00 19,3 13,0 8 4 11 6 NW 1026,2 - 0,0
22.08.2019 17:00:00 19,4 13,3 10 5 12 6 WNW 1026,3 18 0,0
22.08.2019 16:00:00 19,0 14,0 7 4 11 6 W 1026,6 - 0,0
22.08.2019 15:00:00 19,0 14,3 7 4 12 6 W 1026,7 - 0,0
22.08.2019 14:00:00 19,0 14,9 9 5 13 7 W 1026,8 17 0,0
22.08.2019 13:00:00 18,9 15,0 9 5 12 6 WZW 1026,9 - 0,0
22.08.2019 12:00:00 18,6 15,1 8 4 12 6 W 1027,1 - 0,0
22.08.2019 11:00:00 18,3 15,2 8 4 12 6 ZW 1026,7 17 0,0
22.08.2019 10:00:00 17,6 15,0 9 5 13 7 WZW 1026,4 - 0,0
22.08.2019 09:00:00 16,8 15,0 9 5 13 7 ZZW 1026,3 - 0,0
22.08.2019 08:00:00 13,9 12,1 11 6 14 7 Z 1026,0 16 0,0
22.08.2019 07:00:00 12,3 10,0 10 5 13 7 ZZW 1025,7 - 0,0
22.08.2019 06:00:00 12,4 9,4 12 7 14 8 Z 1025,5 - 0,0
22.08.2019 05:00:00 12,3 8,9 11 6 12 7 Z 1025,4 12 0,0
22.08.2019 04:00:00 12,5 9,1 10 5 14 8 Z 1025,5 - 0,0
22.08.2019 03:00:00 12,4 8,9 10 5 11 6 Z 1025,8 - 0,0
22.08.2019 02:00:00 12,3 8,9 9 5 10 6 ZZW 1026,0 14 0,0
22.08.2019 01:00:00 11,9 9,1 2 1 5 3 ZZW 1026,3 - 0,0
22.08.2019 00:00:00 12,0 9,6 2 1 8 4 ZZW 1026,4 - 0,0
21.08.2019 23:00:00 13,1 10,8 9 5 13 7 OZO 1026,4 16 0,0
21.08.2019 22:00:00 13,7 11,0 11 6 13 7 ZO 1026,5 - 0,0
21.08.2019 21:00:00 14,8 10,4 10 5 13 7 O 1026,2 - 0,0
21.08.2019 20:00:00 17,6 12,3 8 4 11 6 O 1026,2 - 0,0
21.08.2019 19:00:00 18,0 12,4 7 4 10 5 N 1026,5 - 0,0
21.08.2019 18:00:00 18,4 12,4 5 3 13 7 NNW 1026,8 - 0,0
21.08.2019 17:00:00 18,6 13,0 9 5 15 8 WNW 1026,9 - 0,0
21.08.2019 16:00:00 18,7 13,5 12 6 22 12 WNW 1027,3 - 0,0
21.08.2019 15:00:00 18,8 13,4 16 8 21 11 W 1027,5 - 0,0
21.08.2019 14:00:00 18,5 12,0 13 7 16 9 WZW 1027,5 16 0,0
21.08.2019 13:00:00 17,9 13,2 13 7 18 10 ZW 1027,8 - 0,0
21.08.2019 12:00:00 17,5 13,2 13 7 18 10 ZZW 1028,2 - 0,0
21.08.2019 11:00:00 17,6 14,7 13 7 17 9 ZZW 1028,1 16 0,0
21.08.2019 10:00:00 16,6 15,0 9 5 13 7 ZZW 1028,1 - 0,0
21.08.2019 09:00:00 15,3 14,0 8 4 11 6 Z 1028,1 - 0,0
21.08.2019 08:00:00 13,9 12,6 10 5 11 6 Z 1027,8 16 0,0
21.08.2019 07:00:00 13,1 11,5 10 6 12 6 Z 1027,8 - 0,0
21.08.2019 06:00:00 13,1 11,2 7 4 9 5 ZZW 1027,6 - 0,0
21.08.2019 05:00:00 13,0 10,5 5 3 9 5 ZZW 1027,6 16 0,0
21.08.2019 04:00:00 15,5 12,6 8 5 13 7 WNW 1027,5 - 0,0
21.08.2019 03:00:00 15,7 12,8 9 5 16 9 WNW 1027,5 - 0,0
21.08.2019 02:00:00 15,8 12,7 13 7 18 10 WNW 1027,8 15 -
21.08.2019 01:00:00 16,0 12,4 12 6 17 9 WNW 1028,0 - 0,0
21.08.2019 00:00:00 16,0 12,0 11 6 18 10 W 1028,1 - 0,0
20.08.2019 23:00:00 16,2 12,6 13 7 22 12 W 1028,0 20 0,0
20.08.2019 22:00:00 16,2 12,2 14 8 20 11 W 1027,7 - 0,0
20.08.2019 21:00:00 16,4 11,8 14 8 22 12 W 1027,4 - 0,0
20.08.2019 20:00:00 17,0 11,9 15 8 23 12 W 1027,1 18 0,0
20.08.2019 19:00:00 17,9 12,1 17 9 26 14 W 1026,8 - 0,0
20.08.2019 18:00:00 18,0 11,5 20 11 26 14 W 1026,5 - 0,0
20.08.2019 17:00:00 18,5 12,5 16 9 26 14 W 1026,4 18 0,0
20.08.2019 16:00:00 18,4 12,4 18 10 29 15 W 1026,3 - 0,0
20.08.2019 15:00:00 18,6 13,0 18 10 26 14 WNW 1025,9 - 0,0
20.08.2019 14:00:00 18,3 12,3 16 9 22 12 W 1025,7 18 0,0
20.08.2019 13:00:00 18,4 12,8 16 8 22 12 WNW 1025,6 - 0,0
20.08.2019 12:00:00 18,0 13,1 14 7 22 12 WNW 1025,2 - 0,0
20.08.2019 11:00:00 17,6 13,3 15 8 24 13 W 1024,7 14 0,0
20.08.2019 10:00:00 16,9 12,4 16 8 27 15 W 1024,2 - 0,0
20.08.2019 09:00:00 16,7 12,0 17 9 32 17 WNW 1023,6 - 0,0
20.08.2019 08:00:00 16,0 12,0 21 11 29 16 WNW 1023,0 14 -
20.08.2019 07:00:00 15,7 11,3 22 12 32 17 WNW 1022,1 - 0,0
20.08.2019 06:00:00 15,9 11,7 23 12 35 19 WNW 1021,7 - 0,0
20.08.2019 05:00:00 16,0 12,0 21 11 31 17 W 1021,6 8 0,0
20.08.2019 04:00:00 16,0 12,2 22 12 34 18 W 1021,4 - 0,0
20.08.2019 03:00:00 16,1 12,6 22 12 35 19 W 1021,5 - 0,0
20.08.2019 02:00:00 16,2 12,7 26 14 38 20 W 1021,5 20 0,0
20.08.2019 01:00:00 16,5 13,0 28 15 39 21 W 1021,4 - 0,0
20.08.2019 00:00:00 16,4 12,9 29 16 41 22 W 1021,1 - 0,0
19.08.2019 23:00:00 16,6 13,1 31 17 41 22 W 1020,9 20 0,0
19.08.2019 22:00:00 16,7 13,0 32 18 43 23 W 1020,6 - 0,0
19.08.2019 21:00:00 16,8 12,5 26 14 37 20 W 1019,8 - 0,0
19.08.2019 20:00:00 17,5 13,2 29 16 41 22 W 1019,6 20 -
19.08.2019 19:00:00 17,9 13,0 29 15 42 23 WZW 1019,5 - 0,0
19.08.2019 18:00:00 18,4 13,7 30 16 41 22 WZW 1019,3 - 0,0
19.08.2019 17:00:00 18,7 13,5 28 15 41 22 WZW 1019,0 20 0,0
19.08.2019 16:00:00 18,6 13,5 29 16 42 23 WZW 1018,7 - 0,0
19.08.2019 15:00:00 18,4 12,6 34 18 50 27 WZW 1018,6 - 0,0
19.08.2019 14:00:00 18,4 13,3 36 19 48 26 WZW 1018,2 20 0,0
19.08.2019 13:00:00 18,2 13,5 35 19 46 25 WZW 1017,9 - 0,0
19.08.2019 12:00:00 17,8 13,1 34 18 49 27 WZW 1017,3 - 0,0
19.08.2019 11:00:00 17,4 13,1 32 18 44 24 WZW 1016,7 20 0,0
19.08.2019 10:00:00 17,1 12,8 31 17 47 26 W 1016,1 - 0,0
19.08.2019 09:00:00 16,8 13,1 31 17 44 24 WZW 1015,5 - 0,0
19.08.2019 08:00:00 16,2 12,7 32 18 46 25 W 1015,0 14 0,0
19.08.2019 07:00:00 15,8 12,0 31 17 48 26 W 1014,6 - 0,4
19.08.2019 06:00:00 16,4 12,6 27 15 42 23 W 1014,2 - 0,0
19.08.2019 05:00:00 16,3 12,5 35 19 51 27 W 1014,0 14 0,0
19.08.2019 04:00:00 16,6 12,7 36 19 53 28 WZW 1013,6 - 0,0
19.08.2019 03:00:00 16,7 13,2 34 18 56 31 WZW 1013,6 - 0,0
19.08.2019 02:00:00 16,7 13,4 37 20 52 28 W 1013,6 14 0,0
19.08.2019 01:00:00 16,9 13,4 37 20 51 28 WZW 1013,2 - 0,0
19.08.2019 00:00:00 16,8 13,3 41 22 54 29 WZW 1013,0 - 0,0
18.08.2019 23:00:00 16,8 13,5 39 21 51 28 WZW 1012,5 14 0,0
18.08.2019 22:00:00 16,8 13,3 36 20 54 29 WZW 1011,9 - 0,0
18.08.2019 21:00:00 16,7 14,0 32 18 56 30 WZW 1011,3 - 0,6
18.08.2019 20:00:00 17,4 13,5 39 21 55 30 WZW 1011,0 14 0,0
18.08.2019 19:00:00 18,0 13,1 39 21 50 27 WZW 1010,7 - 0,0
18.08.2019 18:00:00 18,2 12,6 34 19 50 27 W 1010,6 - 0,0
18.08.2019 17:00:00 18,5 12,7 37 20 54 29 WZW 1010,3 14 0,0
18.08.2019 16:00:00 18,4 13,3 35 19 54 29 WZW 1010,0 - 0,0
18.08.2019 15:00:00 18,2 12,9 34 18 50 27 W 1009,6 - 0,0
18.08.2019 14:00:00 17,9 13,0 39 21 50 27 W 1008,9 20 0,0
18.08.2019 13:00:00 17,7 13,0 39 21 52 28 W 1008,3 - 0,0
18.08.2019 12:00:00 17,7 13,8 37 20 47 26 W 1007,7 - 0,0
18.08.2019 11:00:00 17,1 14,6 31 17 43 23 W 1006,9 16 0,0
18.08.2019 10:00:00 16,3 14,7 30 16 56 30 W 1006,2 - 0,4
18.08.2019 09:00:00 16,4 14,9 34 18 41 22 WZW 1005,3 - 0,0
18.08.2019 08:00:00 16,3 15,0 20 11 27 15 WZW 1004,6 - 0,0
18.08.2019 07:00:00 15,5 14,2 11 6 24 13 ZW 1004,2 - 0,0
18.08.2019 06:00:00 15,2 13,9 19 11 34 18 NW 1003,9 - 0,2
18.08.2019 05:00:00 16,1 15,0 11 6 19 11 W 1004,1 8 0,0
18.08.2019 04:00:00 15,7 14,6 13 7 30 16 Z 1004,2 - 0,8
18.08.2019 03:00:00 16,1 15,0 21 12 31 17 ZZW 1005,5 - 1,6
18.08.2019 02:00:00 16,4 15,1 21 11 31 17 ZW 1005,9 8 0,6
18.08.2019 01:00:00 16,6 15,3 23 13 32 17 WZW 1006,3 - 0,4
18.08.2019 00:00:00 16,9 15,4 23 12 32 17 WZW 1006,7 - 0,4

tt = temperatuur
td = dauwpunt
ff = windsnelheid
fx = windstoten
dd = windrichting
ppp = luchtdruk
vv = zicht
rr = neerslag

Weerstations in de omgeving